Weather History for El Centro, CA

Change the Weather History Date:

Wednesday, March 20, 2013

  Actual Average Record
Temperature  
Mean Temperature 74 °F -  
Max Temperature 93 °F 79 °F 97 °F (2004)
Min Temperature 57 °F 54 °F 37 °F (2012)
Cooling Degree Days 8    
Growing Degree Days 24 (Base 50)    
Moisture  
Dew Point 36 °F    
Average Humidity 27    
Maximum Humidity 56    
Minimum Humidity 10    
Precipitation  
Precipitation 0.00 in - - ()
Sea Level Pressure  
Sea Level Pressure 29.94 in    
Wind  
Wind Speed 8 mph (SW)    
Max Wind Speed 24 mph    
Max Gust Speed 28 mph    
Visibility 10 miles    
Events      
Averages and records for this station are not official NWS values.
T = Trace of Precipitation, MM = Missing Value Source: NWS Daily Summary

Daily Weather History Graph

Daily Weather History Graph

Search for Another Location

Airport:

Trip Planner

Search our weather history database for the weather conditions in past years. The results will help you decide how hot, cold, wet, or windy it might be!

Date:

Astronomy

Mar. 20, 2013 Rise Set
Actual Time 6:45 AM PDT 6:54 PM PDT
Civil Twilight 6:21 AM PDT 7:19 PM PDT
Nautical Twilight 5:52 AM PDT 7:47 PM PDT
Astronomical Twilight 5:23 AM PDT 8:16 PM PDT
Moon 12:50 PM PDT (3/20) 2:11 AM PDT (3/20)
Length of Visible Light 12h 57m
Length of Day
12h 08m
First Quarter, 60% of the Moon is Illuminated
Mar 20
First Quarter
Mar 27
Full
Apr 2
Last Quarter
Apr 10
New
Apr 18
First Quarter

Hourly Weather History & Observations

Time (PDT) Temp. Dew Point Humidity Pressure Visibility Wind Dir Wind Speed Gust Speed Precip Events Conditions
12:56 AM 66.9 °F 37.9 °F 34% 30.00 in 10.0 mi West 5.8 mph - N/A   Clear
1:56 AM 66.0 °F 37.9 °F 36% 29.99 in 10.0 mi WSW 6.9 mph - N/A   Clear
2:56 AM 64.0 °F 36.0 °F 35% 29.98 in 10.0 mi WSW 5.8 mph - N/A   Clear
3:56 AM 66.0 °F 37.0 °F 34% 29.96 in 10.0 mi WSW 8.1 mph - N/A   Clear
4:56 AM 64.0 °F 39.9 °F 41% 29.96 in 10.0 mi South 6.9 mph - N/A   Clear
5:56 AM 62.1 °F 43.0 °F 50% 29.97 in 10.0 mi South 3.5 mph - N/A   Clear
6:56 AM 57.9 °F 41.0 °F 53% 30.01 in 10.0 mi North 3.5 mph - N/A   Mostly Cloudy
7:56 AM 61.0 °F 45.0 °F 56% 30.01 in 10.0 mi SE 5.8 mph - N/A   Mostly Cloudy
8:56 AM 71.1 °F 46.9 °F 42% 30.00 in 10.0 mi South 6.9 mph - N/A   Mostly Cloudy
9:56 AM 75.9 °F 46.0 °F 35% 30.01 in 10.0 mi SSE 3.5 mph - N/A   Mostly Cloudy
10:56 AM 80.1 °F 44.1 °F 28% 29.99 in 10.0 mi ESE 5.8 mph - N/A   Mostly Cloudy
11:56 AM 84.0 °F 41.0 °F 22% 29.98 in 10.0 mi ESE 5.8 mph - N/A   Mostly Cloudy
12:56 PM 88.0 °F 37.9 °F 17% 29.95 in 10.0 mi NW 5.8 mph - N/A   Mostly Cloudy
1:56 PM 89.1 °F 36.0 °F 15% 29.91 in 10.0 mi Calm Calm - N/A   Mostly Cloudy
2:56 PM 90.0 °F 36.0 °F 15% 29.88 in 10.0 mi Calm Calm - N/A   Mostly Cloudy
3:56 PM 90.0 °F 36.0 °F 15% 29.87 in 10.0 mi West 6.9 mph - N/A   Mostly Cloudy
4:56 PM 90.0 °F 30.0 °F 12% 29.86 in 10.0 mi West 19.6 mph - N/A   Mostly Cloudy
5:56 PM 87.1 °F 24.1 °F 10% 29.88 in 10.0 mi West 23.0 mph - N/A   Mostly Cloudy
6:56 PM 81.0 °F 23.0 °F 12% 29.88 in 10.0 mi West 20.7 mph - N/A   Mostly Cloudy
7:56 PM 79.0 °F 19.0 °F 11% 29.89 in 10.0 mi West 24.2 mph 27.6 mph N/A   Mostly Cloudy
8:56 PM 75.0 °F 28.9 °F 18% 29.88 in 10.0 mi Calm Calm - N/A   Scattered Clouds
9:56 PM 75.9 °F 28.0 °F 17% 29.89 in 10.0 mi WSW 19.6 mph 26.5 mph N/A   Scattered Clouds
10:56 PM 73.9 °F 30.9 °F 21% 29.87 in 10.0 mi WSW 15.0 mph - N/A   Scattered Clouds
11:56 PM 73.0 °F 30.9 °F 21% 29.85 in 10.0 mi West 12.7 mph 17.3 mph N/A   Clear